Wind_Speed
8 5 12 16 17 9 7 11 11 8 17 10 18 15 12 14 16 22 26 21 20 12 17 12 38 26 28 34 37 35 31 27 28 32 31 26 21 22 21 17 14 17 14 11
4 11 8 9 12 16 16 15 13 17 13 10 16 18 13 9 8 11 28 24 21 17 14 10 18 36 10 17 40 40 36 30 26 25 23 23 23 21 20 22 17 17 13 12
6 6 14 17 15 18 15 14 15 12 15 16 13 15 10 7 14 33 29 31 28 30 15 14 16 14 25 48 44 45 39 27 26 25 27 23 22 24 22 20 17 13 10 5
8 15 16 16 18 14 14 18 18 15 12 9 15 11 13 11 8 20 22 26 28 29 19 17 21 20 28 42 26 39 37 34 30 29 21 24 26 29 23 17 11 9 8 9
6 7 10 17 13 13 16 15 15 14 3 5 8 6 13 16 15 6 14 21 18 15 19 21 19 17 10 21 21 40 38 34 31 25 23 25 25 20 16 11 11 13 13 10
14 13 6 8 11 13 10 12 5 4 0 2 9 9 14 9 21 6 13 23 21 20 20 21 25 19 14 9 16 12 20 29 28 26 24 25 20 17 19 15 16 14 11 7
11 13 7 9 7 11 13 5 4 2 1 4 8 4 11 18 21 12 15 27 32 29 26 32 27 22 18 19 15 16 19 28 25 25 24 26 21 21 17 19 15 11 9 5
7 4 12 15 12 5 9 7 5 6 4 7 8 6 10 20 26 27 34 40 38 31 36 31 31 28 31 27 29 24 20 18 22 24 22 26 22 19 20 17 14 11 6 0
3 6 12 8 8 7 6 5 11 4 4 0 4 8 11 20 19 12 27 33 41 43 37 34 24 32 34 26 26 20 23 24 27 25 24 21 23 25 23 21 21 17 9 5
5 2 4 6 7 10 6 14 12 6 8 5 10 7 14 9 17 11 12 16 30 39 40 31 35 37 32 29 23 24 27 30 25 20 23 25 26 22 23 21 17 12 9 4
6 4 4 7 6 8 3 3 3 2 2 2 1 7 7 16 10 12 19 30 35 26 34 32 33 37 36 32 33 30 29 23 21 28 26 25 22 20 20 17 13 9 6 6
2 2 5 7 7 7 6 7 6 3 1 2 5 5 9 4 10 9 16 28 32 26 13 8 31 40 33 34 31 30 27 24 32 24 22 21 19 16 15 11 7 5 7 10
3 3 2 2 6 5 3 5 5 8 2 2 2 5 6 6 5 14 20 27 32 24 18 21 36 38 40 32 34 32 27 31 27 24 21 17 15 11 8 6 5 7 9 12
3 4 5 7 5 4 6 12 7 6 4 2 3 11 3 4 2 12 36 40 39 34 25 22 27 30 43 40 36 30 29 27 26 24 20 17 10 7 5 5 7 10 13 17
4 3 5 6 13 15 16 10 7 6 10 3 5 9 5 8 12 22 33 39 43 42 44 41 41 43 42 39 35 32 31 28 24 21 17 11 7 3 5 8 11 13 17 19
5 4 6 4 19 19 14 12 10 13 16 17 5 8 3 25 36 32 29 36 36 42 42 41 40 40 40 39 39 37 31 28 23 20 17 12 8 6 8 12 14 16 18 19
4 3 5 6 7 5 7 8 7 8 22 20 3 4 6 16 22 26 25 35 36 37 38 38 36 33 31 34 33 33 32 29 24 21 16 11 9 9 11 13 15 17 18 17
1 3 3 4 8 5 3 5 8 6 19 19 18 16 16 21 30 32 21 28 33 36 39 37 34 34 30 27 29 31 30 26 20 14 9 6 6 9 11 14 15 16 17 15
8 5 1 3 4 3 3 7 7 3 8 17 23 21 25 37 34 23 16 24 29 29 29 30 28 27 23 21 20 19 17 14 10 6 3 5 6 7 10 12 14 14 12 11
12 10 6 5 4 2 5 8 14 3 7 4 17 14 21 23 5 6 22 28 27 24 22 22 24 25 21 16 14 14 14 10 7 4 2 4 5 6 9 12 13 13 11 12
6 6 10 7 2 9 9 4 8 5 9 17 16 18 19 4 8 31 28 29 29 28 26 25 22 14 11 9 7 9 8 7 6 3 2 6 6 7 10 12 14 12 12 12
4 7 5 5 4 5 8 3 5 6 24 31 28 29 22 26 37 33 32 31 28 22 20 18 19 18 11 4 5 4 8 8 5 4 5 5 7 7 7 10 11 7 9 12
3 2 4 3 6 12 8 14 14 39 37 26 31 33 36 39 33 33 34 31 26 23 22 15 16 16 11 8 7 9 10 8 6 6 6 8 9 8 6 8 9 10 12 14
4 6 4 4 6 7 15 19 18 19 30 29 38 41 40 40 37 39 34 31 28 26 22 13 11 12 13 10 10 10 9 8 7 8 9 8 9 10 11 11 11 14 18 18
4 7 6 4 5 4 15 11 35 27 34 40 36 37 41 42 36 32 32 31 30 26 20 13 11 11 11 11 11 11 11 10 11 10 10 10 11 13 12 13 13 14 15 16
3 2 3 2 7 7 14 37 43 43 38 40 43 38 35 38 38 35 33 30 28 25 19 14 12 9 10 9 10 10 11 11 11 12 13 13 13 13 11 10 8 9 10 13
Wind_Direction
210 197 209 220 222 246 255 254 231 253 240 195 231 246 231 223 236 251 163 167 173 157 162 198 198 225 217 193 180 182 178 186 181 182 183 183 176 167 170 179 190 193 208 215
289 233 231 231 226 237 245 244 244 245 244 203 221 248 241 207 229 224 138 157 171 158 156 154 180 236 318 203 195 196 195 181 180 182 181 177 159 168 176 181 197 215 224 247
226 239 229 232 220 226 239 245 248 226 241 229 213 249 230 235 219 104 117 130 137 155 153 173 176 225 207 300 209 198 189 179 171 175 178 183 175 176 179 190 203 217 249 188
234 251 217 234 221 213 229 237 244 261 221 219 204 236 232 236 255 125 144 148 154 149 148 160 221 206 193 256 283 204 181 172 165 161 177 180 176 176 185 191 207 193 158 132
226 240 254 227 223 222 238 245 240 255 249 259 225 221 221 234 239 156 138 158 158 180 171 152 162 144 115 225 292 201 188 163 164 173 176 171 174 184 188 194 177 151 134 118
273 267 219 253 236 239 267 247 303 264 161 307 253 213 236 233 236 140 136 158 168 173 159 156 148 185 188 165 232 214 151 164 164 178 184 194 195 193 191 172 154 135 131 123
248 243 243 225 244 260 251 69 17 305 138 203 307 2 241 223 253 162 161 164 167 165 162 143 143 136 165 151 208 211 181 173 172 172 177 185 187 193 184 159 152 152 146 121
220 178 190 208 227 230 214 132 136 184 170 229 242 203 243 239 245 165 174 168 165 167 170 173 170 149 181 175 191 188 191 171 175 176 181 187 170 164 147 145 142 144 137 46
290 200 173 193 193 187 185 144 180 250 96 166 191 245 297 282 256 202 170 166 167 167 174 166 183 177 181 181 175 169 165 173 177 180 170 161 151 149 145 151 152 157 174 223
296 326 198 214 184 244 224 195 193 213 174 177 208 215 220 217 223 185 151 174 180 184 188 183 182 178 182 184 173 166 173 175 172 159 160 151 153 157 163 165 163 171 189 223
243 242 204 179 197 239 274 183 80 217 184 70 182 228 240 229 185 162 151 186 187 178 198 188 163 172 179 176 171 169 174 168 148 151 150 154 161 170 174 172 169 186 222 270
287 305 167 217 194 228 250 292 121 130 3 234 164 279 284 293 163 134 133 125 166 177 212 207 184 180 175 178 176 172 163 154 146 145 149 157 161 165 169 174 187 219 264 292
324 293 135 257 298 303 275 268 140 112 81 30 61 274 325 130 161 136 144 137 140 151 170 246 179 177 181 170 162 149 149 144 146 149 148 150 158 166 178 196 228 270 288 298
122 246 168 194 216 214 252 256 167 109 84 45 258 295 91 174 202 79 72 82 84 92 122 178 165 134 131 136 139 136 136 145 151 150 151 150 157 176 206 242 278 294 298 303
162 276 351 212 193 214 237 232 208 128 120 65 292 298 295 357 81 90 89 83 76 72 76 89 111 120 126 127 131 131 138 146 152 157 161 159 170 189 252 273 282 292 302 309
21 312 0 288 203 218 221 226 241 162 147 203 292 264 38 68 68 71 85 82 80 85 89 91 103 113 121 128 130 141 144 149 147 142 145 154 167 219 261 277 289 300 305 311
358 91 18 293 319 304 211 208 237 165 171 148 97 249 87 68 73 60 69 91 96 96 97 109 110 112 118 124 132 130 132 136 143 146 152 175 194 235 264 284 300 304 310 317
203 73 28 282 331 282 244 200 208 198 139 138 106 89 86 83 77 80 67 90 100 106 113 112 112 119 126 133 134 139 143 144 152 156 163 195 246 274 293 299 305 309 313 321
147 114 72 343 306 272 337 50 51 46 74 116 121 109 108 101 87 84 124 114 112 114 116 118 118 116 127 134 139 146 144 153 154 150 185 260 283 299 301 313 323 327 336 346
78 92 96 345 292 243 245 4 21 154 100 167 122 137 146 148 120 130 138 131 119 117 122 129 135 130 125 127 137 137 136 140 127 126 240 293 314 314 330 342 346 356 7 16
115 133 185 194 82 291 266 330 340 92 183 180 162 150 143 102 135 144 142 131 126 124 126 130 135 135 101 95 106 117 108 103 114 106 344 339 352 348 360 10 7 25 13 360
192 160 190 169 124 278 226 64 94 181 151 159 172 161 143 126 129 147 146 141 137 129 123 124 127 120 124 137 104 106 102 94 83 61 36 5 7 6 16 27 25 12 1 356
254 56 288 144 179 200 194 76 292 172 158 156 141 148 148 137 139 145 140 140 135 128 120 128 132 136 140 158 132 114 94 86 76 59 55 33 26 35 30 17 21 1 4 5
286 337 355 334 318 179 140 151 195 193 156 159 144 139 141 136 145 140 137 135 129 128 137 140 134 124 120 112 99 87 87 80 68 60 54 43 32 51 56 46 33 20 14 16
231 325 316 310 69 242 230 155 166 158 135 128 132 138 138 137 139 140 139 137 137 139 139 143 131 120 106 96 90 86 78 72 66 64 65 57 49 49 55 48 34 25 21 18
167 352 328 267 33 315 283 137 135 131 132 134 133 133 135 137 133 135 132 136 140 142 147 148 146 134 112 108 101 91 81 75 74 72 66 60 56 59 49 38 31 15 21 21
Height
1437 1443 1441 1438 1437 1444 1442 1447 1445 1437 1431 1437 1439 1437 1430 1430 1434 1435 1444 1451 1455 1463 1465 1469 1480 1494 1492 1488 1493 1495 1493 1496 1496 1501 1509 1514 1517 1522 1524 1522 1528 1529 1530 1530
1442 1439 1437 1436 1438 1443 1441 1444 1443 1435 1429 1437 1437 1435 1431 1429 1432 1435 1444 1451 1452 1456 1464 1476 1480 1493 1460 1489 1494 1492 1493 1488 1494 1501 1510 1514 1517 1518 1522 1522 1524 1529 1528 1529
1442 1436 1435 1434 1437 1439 1438 1442 1441 1438 1430 1427 1434 1439 1434 1428 1430 1443 1449 1449 1451 1452 1464 1478 1481 1482 1487 1499 1491 1486 1485 1490 1492 1500 1510 1512 1513 1515 1517 1522 1524 1525 1526 1528
1442 1433 1432 1432 1433 1433 1442 1428 1431 1431 1434 1451 1427 1455 1434 1430 1430 1443 1451 1451 1452 1455 1458 1470 1481 1483 1481 1473 1470 1489 1480 1488 1498 1499 1505 1508 1509 1511 1515 1520 1521 1522 1525 1527
1437 1432 1430 1429 1428 1429 1431 1427 1430 1430 1437 1441 1434 1452 1434 1424 1431 1437 1443 1442 1444 1448 1451 1456 1467 1478 1475 1491 1479 1456 1483 1481 1496 1499 1503 1506 1509 1510 1512 1519 1522 1523 1524 1527
1433 1427 1426 1428 1425 1425 1426 1429 1431 1430 1440 1458 1441 1437 1434 1433 1426 1435 1440 1439 1439 1446 1451 1459 1465 1471 1472 1479 1472 1472 1457 1488 1491 1495 1503 1502 1505 1507 1512 1516 1521 1523 1524 1527
1432 1426 1425 1427 1430 1426 1428 1440 1469 1466 1466 1470 1442 1449 1436 1419 1417 1423 1431 1439 1441 1445 1448 1451 1458 1460 1465 1464 1485 1487 1488 1486 1489 1494 1498 1499 1503 1508 1514 1512 1518 1520 1524 1527
1430 1434 1423 1421 1427 1425 1423 1444 1470 1471 1467 1457 1442 1445 1433 1414 1413 1413 1419 1425 1436 1444 1446 1447 1447 1443 1464 1463 1473 1471 1475 1481 1489 1494 1498 1504 1503 1511 1514 1512 1515 1517 1523 1527
1420 1416 1406 1409 1411 1417 1427 1439 1439 1451 1445 1453 1443 1433 1425 1417 1414 1419 1416 1425 1431 1440 1445 1445 1446 1449 1458 1464 1471 1471 1481 1488 1492 1495 1501 1503 1505 1514 1511 1513 1514 1519 1523 1527
1419 1417 1403 1406 1411 1414 1420 1416 1450 1455 1466 1456 1445 1435 1432 1415 1408 1410 1421 1426 1431 1437 1441 1448 1453 1452 1458 1465 1471 1474 1483 1488 1491 1493 1498 1501 1510 1515 1514 1513 1515 1517 1523 1525
1418 1416 1411 1408 1414 1419 1420 1423 1430 1432 1436 1449 1446 1429 1403 1408 1402 1408 1409 1415 1426 1435 1444 1444 1448 1452 1455 1460 1464 1468 1478 1486 1489 1493 1500 1507 1513 1513 1510 1512 1516 1518 1522 1525
1411 1418 1421 1415 1406 1405 1410 1418 1420 1449 1439 1434 1442 1440 1401 1396 1393 1397 1403 1410 1418 1423 1433 1442 1445 1445 1454 1463 1467 1474 1482 1487 1491 1496 1502 1505 1505 1507 1510 1514 1518 1520 1522 1522
1409 1420 1431 1421 1414 1406 1412 1412 1414 1432 1442 1443 1451 1437 1400 1392 1396 1396 1402 1409 1416 1427 1438 1451 1449 1450 1452 1455 1465 1472 1481 1486 1489 1493 1498 1500 1504 1510 1514 1517 1518 1519 1519 1519
1409 1415 1419 1431 1420 1414 1418 1411 1412 1423 1447 1451 1446 1433 1409 1404 1403 1407 1416 1423 1427 1433 1443 1450 1446 1445 1451 1460 1469 1476 1480 1486 1490 1492 1497 1501 1509 1514 1516 1516 1517 1518 1517 1515
1407 1415 1410 1406 1404 1405 1405 1403 1404 1418 1434 1450 1438 1441 1416 1420 1412 1420 1423 1423 1426 1433 1436 1442 1447 1452 1458 1467 1473 1481 1491 1493 1497 1499 1502 1507 1511 1513 1514 1515 1516 1515 1513 1509
1406 1417 1413 1407 1400 1402 1401 1400 1399 1411 1427 1440 1443 1433 1425 1427 1420 1428 1432 1434 1440 1442 1449 1453 1456 1463 1468 1474 1479 1484 1489 1497 1502 1505 1504 1505 1508 1512 1514 1515 1512 1509 1508 1505
1418 1418 1424 1421 1400 1400 1410 1403 1400 1396 1418 1427 1445 1439 1433 1433 1431 1441 1445 1441 1446 1454 1458 1461 1465 1470 1477 1482 1486 1490 1492 1490 1501 1501 1501 1505 1507 1511 1511 1510 1505 1504 1504 1500
1421 1422 1432 1429 1416 1430 1397 1390 1391 1394 1409 1425 1433 1431 1436 1440 1443 1443 1456 1453 1453 1456 1459 1465 1472 1474 1479 1486 1489 1489 1490 1493 1499 1501 1502 1505 1506 1506 1505 1503 1501 1503 1500 1497
1412 1426 1437 1438 1433 1406 1392 1396 1409 1403 1431 1418 1422 1431 1438 1442 1450 1464 1467 1465 1465 1463 1467 1470 1475 1480 1486 1489 1491 1492 1492 1496 1498 1499 1501 1504 1503 1503 1502 1500 1499 1497 1495 1493
1412 1418 1433 1445 1440 1426 1402 1397 1404 1401 1437 1432 1423 1428 1430 1437 1451 1468 1469 1469 1469 1472 1475 1479 1483 1485 1487 1491 1492 1492 1494 1496 1496 1498 1500 1501 1502 1499 1497 1496 1495 1494 1493 1490
1428 1435 1439 1441 1446 1429 1402 1400 1397 1415 1431 1425 1422 1421 1428 1433 1439 1458 1467 1470 1473 1478 1480 1482 1484 1487 1489 1491 1493 1494 1496 1496 1497 1496 1496 1498 1497 1496 1494 1494 1493 1492 1490 1488
1410 1419 1424 1423 1443 1440 1398 1394 1406 1412 1413 1414 1421 1424 1433 1441 1447 1455 1464 1470 1475 1478 1482 1484 1486 1485 1487 1489 1491 1495 1495 1496 1496 1495 1495 1498 1496 1494 1493 1491 1492 1490 1489 1488
1413 1416 1416 1399 1407 1399 1393 1395 1403 1406 1405 1420 1421 1426 1428 1437 1449 1457 1462 1471 1477 1481 1483 1487 1487 1488 1490 1492 1495 1496 1495 1496 1496 1495 1495 1495 1495 1493 1492 1492 1490 1489 1488 1485
1416 1411 1405 1403 1400 1394 1392 1402 1409 1412 1411 1417 1423 1424 1433 1441 1453 1460 1467 1473 1478 1482 1486 1487 1489 1489 1491 1493 1493 1494 1496 1496 1495 1495 1495 1495 1494 1494 1493 1493 1491 1489 1488 1486
1419 1415 1413 1407 1406 1403 1396 1398 1397 1411 1413 1416 1424 1433 1439 1446 1456 1463 1469 1475 1480 1484 1486 1488 1490 1491 1492 1492 1494 1495 1496 1496 1495 1496 1497 1495 1495 1495 1494 1494 1494 1492 1490 1488
1414 1417 1416 1409 1407 1411 1411 1398 1401 1408 1416 1421 1427 1440 1448 1451 1456 1463 1471 1476 1479 1484 1487 1490 1492 1492 1493 1495 1496 1496 1496 1497 1499 1498 1495 1496 1496 1496 1495 1495 1494 1494 1492 1489